sat.trackr.live / text

‹ back to catalog

SUPERVIEW NEO-2 01

NORAD 53128 · 2022-082A

PAYLOAD ACTIVE UNKNOWN

§ Identity

Operator
Country
PRC
Launch date
2022-07-15
Launch site
TAISC
Launch vehicle
Mass (kg)
RCS (m²)

External: N2YO · Heavens-Above · Gunter

§ Orbital elements

Epoch: 2026-09-20T22:24:11.763072Z

Period
94.46 min
Inclination
97.3941°
Eccentricity
0.0001750
Mean motion
15.24502251 rev/d
Perigee alt
491.1 km
Apogee alt
493.5 km
Semi-major
6,870.4 km
B*
1.3149e-4
RAAN
272.6467°
Arg perigee
89.1274°
Mean anomaly
271.0164°
Rev number
23,279

§ Raw data

SUPERVIEW NEO-2 011 53128U 22082A   26263.93346948  .00003161  00000+0  13149-3 0  99992 53128  97.3941 272.6467 0001750  89.1274 271.0164 15.24502251232793

JSON: /api/v1/satellites/53128 · /tle

For live sub-satellite position, see the globe view (requires WebGL).

§ Visibility from observer

Set your observer location to see the next 7 days of passes ≥ 10°. The values pass through the URL so the page stays shareable.

No JS? Fill the form by hand. The geolocation button needs JavaScript.